Regional Weather Roundup
Issued by NWS

Home | Current Version | Previous Version | Graphics & Text | Print | Product List | Glossary On
Versions: 1 2 3 4 5 6 7 8 9 10 11 12 13 14 15 16 17 18 19 20 21 22 23 24 25 26 27 28 29 30 31 32 33 34 35 36 37 38 39 40 41 42 43 44 45 46 47 48 49 50
000
ASUS43 KLOT 270808
RWRIL

ILLINOIS REGIONAL WEATHER ROUNDUP
NATIONAL WEATHER SERVICE CHICAGO/ROMEOVILLE IL
300 AM CDT FRI MAR 27 2015

NOTE: "FAIR" INDICATES FEW OR NO CLOUDS BELOW 12,000 FEET WITH NO
SIGNIFICANT WEATHER AND/OR OBSTRUCTIONS TO VISIBILITY.

* THESE STATIONS ARE NOT UNDER NWS QUALITY CONTROL. THEY ALSO MAY NOT
  REPORT WEATHER SUCH AS PRECIPITATION OR FOG.

ILZ001-002-007-009-015-016-024-270900-
NORTHWEST ILLINOIS

CITY           SKY/WX    TMP DP  RH WIND       PRES   REMARKS
MOLINE         MOCLDY    31  21  66 N8        30.11S WCI  23
STERLING*      CLOUDY    30  18  59 N8        30.11S WCI  23
SAVANNA*       CLOUDY    31  14  48 N10       30.13S WCI  23
$$

ILZ003-004-008-010-011-017-018-270900-
NORTH CENTRAL ILLINOIS

CITY           SKY/WX    TMP DP  RH WIND       PRES   REMARKS
ROCKFORD       MOCLDY    27  14  58 N10       30.12S WCI  17
FREEPORT*      PTCLDY    26  16  67 N9        30.14R WCI  16
ROCHELLE*      PTCLDY    27  19  69 N13       30.10S WCI  17
DE KALB*       MOCLDY    27  18  69 N14       30.08S WCI  15
PERU*          CLOUDY    32  23  69 N12       30.10S WCI  23
$$

ILZ005-006-012>014-019>023-270900-
NORTHEAST ILLINOIS

CITY           SKY/WX    TMP DP  RH WIND       PRES   REMARKS
CHICAGO-OHARE  FLURRIES  29  24  82 N10       30.06S WCI  20
CHICAGO-MIDWAY FLURRIES  31  25  78 N10       30.07S WCI  22
AURORA         CLOUDY    30  18  60 N13       30.07F WCI  20
LANSING*       LGT SNOW  30  24  78 N6        30.06S WCI  24
JOLIET*        CLOUDY    33  18  55 N9        30.07R WCI  25
WAUKEGAN       CLOUDY    26  22  84 N13G20    30.07F WCI  15
DUPAGE AIRPORT CLOUDY    29  19  66 N14       30.06S WCI  18
KANKAKEE*      CLOUDY    32  22  66 N8        30.06R WCI  25
WHEELING       LGT SNOW  28  23  81 NE8       30.09S WCI  20
MORRIS*        CLOUDY    31  20  63 N7        30.07R WCI  25
ROMEOVILLE*    CLOUDY    31  17  57 N13       30.06S WCI  21
NORTHERLY ISL    N/A     29  25  85 NE14        N/A  WCI  18
$$

LMZ740>746-270900-
SOUTHERN LAKE MICHIGAN

STATION/POSITION SKY/WX   TEMP    WIND        PRES    VSBY  WAVE
                          AIR SEA DIR/SP/G                  HT/PER
                          (F)     (DEG/KT/KT) (MB)    (MI)  (FT/S)
HARRISON CRIB              29      20/ 19/ 22   N/A
BURNHAM HARBOR             29      20/ 13/ 18   N/A
CALUMET HARBOR             30      20/ 15/ 19 1016.8F
BURNS HARBOR               30      20/ 19/ 22 1017.9S
MICHIGAN CITY              28     360/ 20/ 24   N/A
$$

ILZ025>027-034>036-040-047-049-050-058-095>099-270900-
WEST-CENTRAL ILLINOIS

CITY           SKY/WX    TMP DP  RH WIND       PRES   REMARKS
QUINCY         CLOUDY    31  23  72 N9        30.11S WCI  23
GALESBURG*     MOCLDY    26  22  86 NW6       30.11S WCI  19
MACOMB*        PTCLDY    29  24  81 NW10      30.13F WCI  20
JACKSONVILLE*  MOCLDY    34  26  70 N8        30.09S WCI  28
PITTSFIELD*    MOCLDY    33  25  72 N7        30.11S WCI  27
$$

ILZ028>032-037-038-041>044-048-051>054-059>061-270900-
CENTRAL ILLINOIS

CITY           SKY/WX    TMP DP  RH WIND       PRES   REMARKS
PONTIAC        MOCLDY    32  26  79 N10       30.07R WCI  23
BLOOMINGTON    MOCLDY    31  24  75 N12       30.06S WCI  22
DECATUR        CLOUDY    33  26  75 N9        30.05S WCI  25
PEORIA         CLEAR     30  21  69 N6        30.09S WCI  24
LACON*         PTCLDY    31  20  65 NE6       30.09S WCI  25
LINCOLN*       MOCLDY    33  25  74 NW6       30.08S WCI  27
SPRINGFIELD    CLOUDY    33  24  69 N9        30.08S WCI  25
TAYLORVILLE    CLOUDY    32  28  86 N9        30.07S WCI  24
$$

ILZ033-039-045-046-055>057-062-063-270900-
EAST-CENTRAL ILLINOIS

CITY           SKY/WX    TMP DP  RH WIND       PRES   REMARKS
CHAMPAIGN      MOCLDY    32  24  72 N13       30.04R WCI  22
DANVILLE*      PTCLDY    27  25  91 N7        30.01R WCI  20
RANTOUL*       PTCLDY    33  26  72 N9        30.03S WCI  26
MATTOON        CLOUDY    32  27  81 N7        30.03R WCI  26
PARIS*         CLEAR     32  27  81 CALM      30.04R
$$

ILZ079-100>102-270900-
SOUTHWEST ILLINOIS

CITY           SKY/WX    TMP DP  RH WIND       PRES   REMARKS
ALTON          CLOUDY    37  26  66 N9        30.08S WCI  30
BELLEVILLE     CLOUDY    39  28  66 N14       30.05R WCI  30
CAHOKIA*       CLOUDY    40  27  59 N16       30.07R
SPARTA*        MOCLDY    38  30  73 N5        30.06R WCI  34
$$

ILZ064>066-069>071-074>076-080>082-084>086-088>090-092>094-270900-
SOUTH-CENTRAL ILLINOIS

CITY           SKY/WX    TMP DP  RH WIND       PRES   REMARKS
CARBONDALE     MOCLDY    32  30  92 W6        30.04R WCI  26
CAIRO*         CLEAR     35  35  98 W3        30.03S
EFFINGHAM*     CLOUDY    36  24  62 N7        30.06R WCI  31
MARION         PTCLDY    36  34  93 CALM      30.04R
MT. VERNON     CLOUDY    30  27  86 CALM      30.04R
CENTRALIA*     MOCLDY    37  29  74 N8        30.05R WCI  31
SALEM*         CLOUDY    38  31  78 NW8       30.05R WCI  32
METROPOLIS*    CLEAR     32  32 100 CALM      30.00F FOG
$$

ILZ067-068-072-073-078-083-087-091-270900-
SOUTHEAST ILLINOIS

CITY           SKY/WX    TMP DP  RH WIND       PRES   REMARKS
LAWRENCEVILLE  CLEAR     32  29  88 N7        30.03R WCI  26
FLORA*         CLEAR     34  30  85 N6        30.03S WCI  29
FAIRFIELD*     PTCLDY    32  30  93 CALM      30.01F
HARRISBURG*    CLEAR     32  32 100 CALM      30.02F
ROBINSON*      CLOUDY    34  30  86 NW6       30.05R WCI  29
CARMI*         CLEAR     33  32  98 NW5       30.01F WCI  28
$$

ABBREVIATIONS USED IN REMARKS
   TC - TEMPERATURE IN CELSIUS
  WCI - WIND CHILL INDEX
   HX - HEAT INDEX
  VSB - VISIBILITY
$$



USA.gov is the U.S. government's official web portal to all federal, state and local government web resources and services.